Regional Weather Roundup
Issued by NWS Upton, NY

Current Version | Previous Version | Graphics & Text | Print | Product List | Glossary Off
Versions: 1 2 3 4 5 6 7 8 9 10 11 12 13 14 15 16 17 18 19 20 21 22 23 24 25 26 27 28 29 30 31 32 33 34 35 36 37 38 39 40 41 42 43 44 45 46 47 48 49 50

000
ASUS41 KOKX 191705
RWROKX

REGIONAL WEATHER ROUNDUP
NATIONAL WEATHER SERVICE NEW YORK NY
1200 PM EST FRI DEC 19 2014

NOTE: "FAIR" INDICATES FEW OR NO CLOUDS BELOW 12,000 FEET WITH NO
SIGNIFICANT WEATHER AND/OR OBSTRUCTIONS TO VISIBILITY.

NYZ071-072-176-178-NJZ106-104-191800-
NEW YORK CITY METRO AREA


CITY           SKY/WX    TMP DP  RH WIND       PRES   REMARKS
CENTRAL PARK   PTSUNNY   36  19  50 N9G17     30.06F WCI  29
LAGUARDIA APRT PTSUNNY   35  21  56 N20G25    30.04F WCI  24
KENNEDY INTL   PTSUNNY   38  19  46 NW18      30.04F WCI  28
NEWARK/LIBERTY PTSUNNY   38  20  48 NW17G23   30.05F WCI  28
BRNX BOT. GARD   N/A    N/A N/A N/A W8        30.06S
TETERBORO      PTSUNNY   36  19  50 N16G23    30.04F WCI  26
$$

NYZ177-179-078>081-191800-
LONG ISLAND NEW YORK

CITY           SKY/WX    TMP DP  RH WIND       PRES   REMARKS
FARMINGDALE    CLOUDY    36  21  54 NW13G20   30.02F WCI  27
ISLIP          PTSUNNY   36  22  56 NW13      29.99F WCI  27
SHIRLEY        CLOUDY    38  23  55 NW13      30.01F WCI  30
WESTHAMPTON    CLOUDY    38  22  52 NW15G22   30.00F WCI  29
MONTAUK POINT    N/A     40  24  53 NW9G22    29.98F WCI  34
$$

NYZ052-065-067-191800-
HUDSON VALLEY

CITY           SKY/WX    TMP DP  RH WIND       PRES   REMARKS
WHITE PLAINS   PTSUNNY   35  20  54 NW14G20   30.00F WCI  26
NEWBURGH       PTSUNNY   34  23  64 NW14G25   30.04F WCI  24
MONTGOMERY     CLOUDY    34  20  56 NW12      30.02F WCI  25
POUGHKEEPSIE   CLOUDY    37  21  52 N10       30.02F WCI  30
ALBANY         CLOUDY    30  20  66 W16G26    30.06S WCI  19
$$

NJZ001-105-106-008-010-013-015-019>022-104-191800-
NEW JERSEY

CITY           SKY/WX    TMP DP  RH WIND       PRES   REMARKS
NEWARK/LIBERTY PTSUNNY   38  20  48 NW17G23   30.05F WCI  28
TETERBORO      PTSUNNY   36  19  50 N16G23    30.04F WCI  26
CALDWELL       CLOUDY    35  18  49 NW12      30.05F WCI  27
MORRISTOWN     PTSUNNY   37  21  52 N13G22    30.06F WCI  29
SOMERVILLE     CLOUDY    37  21  52 NW13G22   30.05F WCI  29
SUSSEX         CLOUDY    32  21  64 NW10G17   30.05F WCI  24
ANDOVER          N/A     32  20  61 N9G17     30.04F WCI  24
TRENTON        CLOUDY    37  21  52 NW12      30.05F WCI  29
MILLVILLE      CLOUDY    39  24  55 NW14      30.08F WCI  31
ATLANTIC CITY  CLOUDY    39  25  57 NW13      30.06F WCI  31
WRIGHTSTOWN    CLOUDY    38  24  58 N12       30.04S WCI  30
TOMS RIVER     CLOUDY    37  25  60 NW14G20   30.05F WCI  29
BELMAR         CLOUDY    37  21  52 NW14G21   30.04S WCI  29
$$

PAZ047>061-062-071-191800-
EASTERN PENNSYLVANIA

CITY           SKY/WX    TMP DP  RH WIND       PRES   REMARKS
PHILADELPHIA   CLOUDY    39  23  52 NW16      30.09F WCI  30
ALLENTOWN      CLOUDY    37  22  54 NW9       30.07F WCI  30
SCRANTON       CLOUDY    30  19  63 N13G20    30.07F WCI  20
$$

CTZ002-004>006-009-010-012-RIZ004-006-007-MAZ004-011-015-191800-
SOUTHERN NEW ENGLAND
 IN CT

CITY           SKY/WX    TMP DP  RH WIND       PRES   REMARKS
BRADLEY INTL   CLOUDY    35  21  56 NW13      29.98F WCI  26
HARTFORD       CLOUDY    36  21  54 N12G17    29.99F WCI  28
DANBURY        SUNNY     35  19  52 W10G21    30.00F WCI  27
WTRBRY/OXFORD  PTSUNNY   34  18  51 NW8G16    29.98F WCI  27
BRIDGEPORT     SUNNY     40  22  48 NW13      29.99F WCI  32
MERIDEN        CLOUDY    37  21  52 NW10G20   29.99F WCI  30
NEW HAVEN      PTSUNNY   41  22  46 NW10G22   29.99F
CHESTER        CLOUDY    36  23  60 NW13G22   29.97F WCI  27
GROTON         CLOUDY    38  23  55 N17       29.97F WCI  28
WILLIMANTIC    CLOUDY    35  21  56 NW10      29.98F WCI  27

 IN RI

CITY           SKY/WX    TMP DP  RH WIND       PRES   REMARKS
PROVIDENCE     CLOUDY    36  22  56 NW12      29.96F WCI  28
BLOCK ISLAND   MOSUNNY   39  23  52 NW13G21   29.95S WCI  32
WESTERLY       CLOUDY    38  23  55 NW8       29.97F WCI  32

 IN MA

CITY           SKY/WX    TMP DP  RH WIND       PRES   REMARKS
BOSTON         CLOUDY    35  22  58 NW12      29.95F WCI  27
WORCESTER      CLOUDY    30  21  69 NW13      29.91F WCI  20
WESTFIELD      CLOUDY    34  20  56 NW17G26   29.99S WCI  23
PROVINCETOWN   CLOUDY    36  25  64 NW13      29.94S WCI  27
NANTUCKET      CLOUDY    39  25  57 NW12      29.93S WCI  32
$$

ANZ330-335-338-340-345-350-353-355-191800-
COASTAL MARINE OBSERVATIONS


STATION/POSITION TIME  SKY/WX   TEMP    WIND        PRES    VSBY  WAVE
                                AIR SEA DIR/SP/G                  HT/PER
                 (UTC)          (F)     (DEG/KT/KT) (MB)    (MI)  (FT/S)
NY HARB ENTRANCE 1700            37 47  310/ 17/ 21 1017.2          2/ 4
4S FIRE IS       1700               47                N/A           2/ 4
20S FIRE ISLAND  1600            40 49              1017.2          3/ 4
23SW MTP         1700                                 N/A           4/ 4
HUDSON CANYON    1700            41 54  310/ 17/ 21 1015.5          4/ 6
EXECUTION ROCKS  1700            36 42  350/ 14/ 21   N/A
WESTERN LI SOUND 1700            36     310/ 12/ 16   N/A           1/ 2
CENTRAL LI SOUND 1600            37 44  320/ 14/ 17   N/A           2/ 3
EASTERN LI SOUND NOT AVBL
ROBBINS REEF     1700            35     350/ 15/ 20 1016.2
$$


>>>>>>>>>>>>>>>>>>>>>>>>>>>> KEY <<<<<<<<<<<<<<<<<<<<<<<<<<<
>                                                          <
>     SKY/WX - SKY CONDITION/PRESENT WEATHER               <
>     TMP    - TEMPERATURE IN FAHRENHEIT                   <
>     DP     - DEWPOINT IN FAHRENHEIT                      <
>     RH     - RELATIVE HUMIDITY IN PERCENT                <
>     WIND   - DIRECTION AND SPEED IN MPH                  <
>     PRES   - MEAN SEA LEVEL PRESSURE IN INCHES OF HG     <
>     WCI    - WIND CHILL INDEX                            <
>     VSB    - VISIBILITY IN MILES                         <
>     HX     - HEAT INDEX                                  <
>     TC     - TEMPERATURE IN CELSIUS                      <
>     VRB    - VARIABLE WIND DIRECTION                     <
>                                                          <
>>>>>>>>>>>>>>>>>>>>>>>>>>>> KEY <<<<<<<<<<<<<<<<<<<<<<<<<<<





USA.gov is the U.S. government's official web portal to all federal, state and local government web resources and services.